Regional Weather Roundup
Issued by NWS

Home | Current Version | Previous Version | Graphics & Text | Print | Product List | Glossary On
Versions: 1 2 3 4 5 6 7 8 9 10 11 12 13 14 15 16 17 18 19 20 21 22 23 24 25 26 27 28 29 30 31 32 33 34 35 36 37 38 39 40 41 42 43 44 45 46 47 48 49 50
000
ASUS43 KMKX 021421
RWRWI

WISCONSIN REGIONAL WEATHER ROUNDUP
NATIONAL WEATHER SERVICE MILWAUKEE/SULLIVAN WI
900 AM CDT THU JUL 02 2015

NOTE: "FAIR" INDICATES FEW OR NO CLOUDS BELOW 12,000 FEET WITH NO
SIGNIFICANT WEATHER AND/OR OBSTRUCTIONS TO VISIBILITY.

WIZ001-002-006>008-014>016-023>028-021500-
NORTHWEST WISCONSIN

CITY           SKY/WX    TMP DP  RH WIND       PRES   REMARKS
SUPERIOR ARPT  NOT AVBL
ASHLAND        SUNNY     65  54  67 SW6       30.04F
HAYWARD        SUNNY     63  50  62 S5        30.05F
SIREN          NOT AVBL
CUMBERLAND     NOT AVBL
RICE LAKE      NOT AVBL
CHETEK         NOT AVBL
LADYSMITH      NOT AVBL
EAU CLAIRE     SUNNY     61  52  72 E3        30.04S
MENOMONIE      NOT AVBL
NEW RICHMOND   NOT AVBL
OSCEOLA        NOT AVBL
$$

WIZ003>005-009-010-017-018-021500-
NORTH CENTRAL WISCONSIN

CITY           SKY/WX    TMP DP  RH WIND       PRES   REMARKS
MANITOWISH WTR NOT AVBL
ARBOR VITAE    SUNNY     59  52  77 S5        30.10S
WOODRUFF       SUNNY     59  52  77 S5        30.10S
RHINELANDER    SUNNY     60  47  61 S7        30.10F
EAGLE RIVER    NOT AVBL
LAND O LAKES   NOT AVBL
PHILLIPS       NOT AVBL
TOMAHAWK       NOT AVBL
MEDFORD        NOT AVBL
MERRILL        NOT AVBL
$$

WIZ029-030-035-036-043>047-021500-
CENTRAL WISCONSIN

CITY           SKY/WX    TMP DP  RH WIND       PRES   REMARKS
WAUSAU         SUNNY     62  43  49 E5        30.06F
MOSINEE        SUNNY     59  50  72 CALM      30.09F
MARSHFIELD     SUNNY     61  49  64 SE8       30.06F
STEVENS POINT  NOT AVBL
WAUPACA        NOT AVBL
WAUTOMA        SUNNY     61  46  57 NE10      30.08F
WISC RAPIDS    SUNNY     62  47  57 E6        30.08F
CAMP DOUGLAS   SUNNY     59  59 100 E6        30.05F
$$

WIZ011>013-019>022-031-037>040-048>050-021500-
NORTHEAST WISCONSIN

CITY           SKY/WX    TMP DP  RH WIND       PRES   REMARKS
ANTIGO         SUNNY     59  49  70 CALM      30.10F
SHAWANO        NOT AVBL
OCONTO         NOT AVBL
STURGEON BAY   SUNNY     61  45  55 N5        30.11S
GREEN BAY      SUNNY     62  49  62 N6        30.08F
MANITOWOC      SUNNY     59  49  69 MISG      30.08F
APPLETON       SUNNY     57  45  62 NE7       30.09S
CLINTONVILLE   NOT AVBL
OSHKOSH        SUNNY     61  47  59 NE10      30.06F
$$

WIZ032>034-041-042-053>061-021500-
SOUTHWEST WISCONSIN

CITY           SKY/WX    TMP DP  RH WIND       PRES   REMARKS
LA CROSSE      SUNNY     59  53  80 SE3       30.05R
SPARTA         NOT AVBL
VIROQUA        NOT AVBL
BOSCOBEL       MOSUNNY   56  54  93 CALM      30.05S
PRAIRIE DU CHI NOT AVBL
PLATTEVILLE    NOT AVBL
$$

WIZ056-057-062-063-064-067-068-021500-
SOUTH CENTRAL WISCONSIN

CITY           SKY/WX    TMP DP  RH WIND       PRES   REMARKS
REEDSBURG      NOT AVBL
BARABOO/DELLS  NOT AVBL
LONE ROCK      SUNNY     60  52  74 CALM      30.05S
MINERAL POINT  NOT AVBL
MADISON        SUNNY     59  48  67 E12       30.05S
MIDDLETON      NOT AVBL
WATERTOWN      NOT AVBL
MONROE         NOT AVBL
JANESVILLE     SUNNY     59  52  77 NE12      30.03F
$$

WIZ051-052-058>065-066-070>072-021500-
SOUTHEAST WISCONSIN

CITY           SKY/WX    TMP DP  RH WIND       PRES   REMARKS
MILWAUKEE      MOSUNNY   58  51  78 NE10      30.06F
WAUKESHA       SUNNY     55  48  76 N6        30.06F
MILWAUKEE/TIMM SUNNY     59  48  67 NE8       30.06F
RACINE         SUNNY     59  51  75 NE13      30.06S
BURLINGTON     NOT AVBL
KENOSHA        MOSUNNY   60  51  72 NE14      30.04F
FOND DU LAC    SUNNY     60  47  61 E9        30.07S
SHEBOYGAN      SUNNY     59  48  67 NE12      30.07S
WEST BEND      NOT AVBL
JUNEAU         NOT AVBL
$$

LSZ147-162-021500-
LAKE SUPERIOR

STATION/POSITION TIME  TEMP    WIND        PRES    WAVE
                       AIR SEA DIR/SP/G            HT/PER
                 (UTC) (F)     (DEG/KT/KT) (MB)    (FT/S)
W MID LAKE BUOY  1350   45 38  170/  8/ 10 1017.3F   0
DEVILS ISLAND    1400   60     230/  4/  6 1016.8F
SAXON HARBOR     1300   61     200/  6/ 10 1017.3S
$$

LMZ867-665-643>646-021500-
LAKE MICHIGAN

STATION/POSITION TIME  TEMP    WIND        PRES    WAVE
                       AIR SEA DIR/SP/G            HT/PER
                 (UTC) (F)     (DEG/KT/KT) (MB)    (FT/S)
CHAMBERS ISLAND  1300   63     290/  2/  5 1018.6
S GREEN BAY BUOY 1200   60 68   90/  4/  6 1019.2
N MID LAKE BUOY  1350   48 42  300/  4/  6 1018.9R   0
NORTHPORT PIER   1300   59     320/  4/  6 1018.6R
SISTER BAY       1344   64      10/  6/  7   N/A
ALGOMA LAKESHORE 1310           10/  4/  6   N/A
KEWAUNEE LAKESHO 1400   60      50/  1/  3 1018.1R
SHEBOYGAN LAKESH 1400   56      40/ 12/ 13 1018.6F
PORT WASHINGTON  1300   59      30/  7/ 10 1019.0R
ATWATER BUOY     1400   56      20/ 10/ 12 1018.8F
MILWAUKEE LAKESH 1400   55      40/ 10/ 11   N/A
KENOSHA   LAKESH 1400   56      30/ 15/ 18 1016.9F
$$

TC  - TEMPERATURE IN CELSIUS
VSB - VISIBILITY IN STATUTE MILES
WCI - WIND CHILL INDEX
HX  - HEAT INDEX




USA.gov is the U.S. government's official web portal to all federal, state and local government web resources and services.